Flag for Norway Weather past 2 weeks in Mosjøen, Norway

Now
40 °F

Quite cool.


Feels Like: 36 °F
Forecast: 33 / 38 °F
Wind: 6 mph from Southwest

Location: Mosjoen Kjaerstad

Current Time: Mar 1, 2015 at 6:16:43 AM

Latest Report: Mar 1, 2015 at 5:00 AM


Visibility: N/A

Pressure: 29.09 "Hg

Humidity: 62%

Dew point: 28 °F

Location of MosjøenLocation

Historic Weather in Mosjøen — Graph

°F

Mosjøen temperature yesterday

Maximum temperature yesterday: 42 °F (at 12:00 PM)
Minimum temperature yesterday: 35 °F (at 8:00 AM)
Average temperature yesterday: 38 °F

Past Weeks' High & Low Weather Summary

 TemperatureHumidityPressure
High45 °F (Feb 19, 4:00 PM)96% (Feb 14, 4:00 AM)30.37 "Hg (Feb 14, 4:00 AM)
Low15 °F (Feb 14, 9:00 PM)47% (Feb 28, 1:00 PM)28.91 "Hg (Feb 23, 4:00 PM)
Average33 °F78%29.49 "Hg
* Reported Feb 14 4:00 AM — Mar 1 4:00 AM, Mosjøen, Weather by CustomWeather, © 2015

Note: Actual official high and low records may vary slightly from our data, if they occured in-between our weather recording intervals... More about our weather records

Advertising

Mosjøen weather history for previous 24 hours

 ConditionsComfort  
Time TempWeatherWind HumidityBarometerVisibility
4:00 AM
Sun, Mar 1
40 °FQuite cool.5 mph60%29.12 "HgN/A
3:00 AM40 °FQuite cool.6 mph59%29.15 "HgN/A
2:00 AM40 °FQuite cool.6 mph60%29.15 "HgN/A
1:00 AM40 °FQuite cool.7 mph56%29.18 "HgN/A
12:00 AM39 °FChilly.7 mph58%29.18 "HgN/A
11:00 PM
Sat, Feb 28
39 °FChilly.8 mph55%29.21 "HgN/A
10:00 PM39 °FChilly.8 mph56%29.21 "HgN/A
9:00 PM39 °FChilly.8 mph60%29.23 "HgN/A
8:00 PM38 °FChilly.10 mph61%29.23 "HgN/A
7:00 PM37 °FChilly.9 mph64%29.23 "HgN/A
6:00 PM36 °FChilly.10 mph67%29.26 "HgN/A
5:00 PM36 °FChilly.8 mph64%29.26 "HgN/A
4:00 PM37 °FChilly.8 mph56%29.29 "HgN/A
3:00 PM38 °FChilly.6 mph52%29.29 "HgN/A
2:00 PM38 °FChilly.12 mph51%29.29 "HgN/A
1:00 PM40 °FQuite cool.9 mph47%29.29 "HgN/A
12:00 PM42 °FQuite cool.7 mph48%29.29 "HgN/A
11:00 AM40 °FQuite cool.7 mph52%29.32 "HgN/A
10:00 AM39 °FChilly.3 mph58%29.38 "HgN/A
9:00 AM39 °FChilly.7 mph60%29.41 "HgN/A
8:00 AM35 °FChilly.1 mph81%29.44 "HgN/A
7:00 AM35 °FChilly.No wind86%29.47 "HgN/A
6:00 AM36 °FChilly.1 mph87%29.47 "HgN/A
Weather by CustomWeather, © 2015

See weather overviewHow to use our weather pages